FW4541 Weather Reports


time (UTC)temp
C
wind
direction
speed
KPH
gust
KPH
rain 1hr
cm
rain 24hr
cm
rain mn
cm
humidity
%
barometer
mb
20260506150920 21 175 3.2 8.0 0.00 0.00 0.00 75 1014.0
20260506150416 21 86 3.2 12.9 0.00 0.00 0.00 75 1014.1
20260506145913 21 136 1.6 3.2 0.00 0.00 0.00 76 1013.7
20260506145409 21 144 1.6 8.0 0.00 0.00 0.00 77 1013.8
20260506144907 21 109 0.0 1.6 0.00 0.00 0.00 77 1013.5
20260506144403 20 143 4.8 8.0 0.00 0.00 0.00 77 1013.5
20260506143902 20 119 0.0 3.2 0.00 0.00 0.00 78 1013.5
20260506143358 20 131 0.0 3.2 0.00 0.00 0.00 78 1013.5
20260506142857 20 117 0.0 3.2 0.00 0.00 0.00 79 1013.7
20260506142354 20 171 1.6 8.0 0.00 0.00 0.00 77 1013.6
20260506141852 20 104 1.6 1.6 0.00 0.00 0.00 78 1013.7
20260506141350 20 145 1.6 4.8 0.00 0.00 0.00 79 1013.5
20260506140848 20 116 1.6 3.2 0.00 0.00 0.00 77 1013.8
20260506140345 20 128 0.0 1.6 0.00 0.00 0.00 78 1014.0
20260506135842 19 122 0.0 3.2 0.00 0.00 0.00 78 1013.8
20260506135338 19 133 0.0 4.8 0.00 0.00 0.00 79 1013.9
20260506134834 20 127 1.6 3.2 0.00 0.00 0.00 78 1013.7
20260506134331 19 151 0.0 1.6 0.00 0.00 0.00 78 1013.9
20260506133828 18 127 0.0 0.0 0.00 0.00 0.00 80 1013.7
20260506133325 18 131 1.6 3.2 0.00 0.00 0.00 80 1013.6
20260506132822 18 119 0.0 1.6 0.00 0.00 0.00 81 1013.7
20260506132319 18 130 1.6 1.6 0.00 0.00 0.00 81 1013.7
20260506131817 18 83 3.2 4.8 0.00 0.00 0.00 81 1013.6
20260506131313 18 129 1.6 1.6 0.00 0.00 0.00 81 1013.7
20260506130810 17 125 1.6 1.6 0.00 0.00 0.00 82 1013.7
20260506130306 17 133 0.0 1.6 0.00 0.00 0.00 82 1013.8
20260506125805 17 140 1.6 1.6 0.00 0.00 0.00 83 1013.6
20260506125305 17 124 1.6 1.6 0.00 0.00 0.00 83 1013.7
20260506124801 17 127 0.0 1.6 0.00 0.00 0.00 83 1013.8
20260506124257 17 128 0.0 0.0 0.00 0.00 0.00 83 1013.9
20260506123755 16 133 1.6 3.2 0.00 0.00 0.00 83 1013.7
20260506123254 16 133 1.6 1.6 0.00 0.00 0.00 83 1013.7
20260506122750 16 134 0.0 1.6 0.00 0.00 0.00 84 1013.6
20260506122247 16 122 0.0 0.0 0.00 0.00 0.00 84 1014.0
20260506121745 16 126 1.6 1.6 0.00 0.00 0.00 84 1014.0
20260506121242 16 123 0.0 1.6 0.00 0.00 0.00 84 1014.2
20260506120739 16 120 1.6 1.6 0.00 0.00 0.00 85 1014.3
20260506120237 16 118 0.0 0.0 0.00 0.00 0.00 85 1014.3
20260506115734 16 111 1.6 1.6 0.00 0.00 0.00 84 1014.3
20260506115232 16 122 0.0 0.0 0.00 0.00 0.00 84 1014.3
20260506114730 16 123 0.0 0.0 0.00 0.00 0.00 84 1014.0
20260506114227 16 130 0.0 1.6 0.00 0.00 0.00 84 1014.0
20260506113726 16 118 0.0 0.0 0.00 0.00 0.00 84 1013.3
20260506113223 16 118 0.0 1.6 0.00 0.00 0.00 84 1013.5
20260506112719 16 120 1.6 3.2 0.00 0.00 0.00 84 1013.4
20260506112217 16 115 0.0 0.0 0.00 0.00 0.00 84 1013.6
20260506111714 15 125 0.0 1.6 0.00 0.00 0.00 85 1013.4
20260506111212 15 121 0.0 1.6 0.00 0.00 0.00 85 1013.3
20260506110709 16 118 0.0 1.6 0.00 0.00 0.00 84 1013.3
20260506110206 16 124 0.0 1.6 0.00 0.00 0.00 84 1013.3
20260506105703 16 119 0.0 3.2 0.00 0.00 0.00 83 1013.0
20260506105200 16 126 3.2 4.8 0.00 0.00 0.00 83 1013.0
20260506104658 16 121 0.0 0.0 0.00 0.00 0.00 83 1012.8
20260506104155 16 121 0.0 0.0 0.00 0.00 0.00 83 1012.5
20260506103652 15 120 0.0 1.6 0.00 0.00 0.00 84 1012.7
20260506103149 15 110 1.6 1.6 0.00 0.00 0.00 84 1012.5
20260506102647 16 120 0.0 0.0 0.00 0.00 0.00 83 1012.3
20260506102144 16 119 0.0 0.0 0.00 0.00 0.00 83 1012.4
20260506101641 16 122 0.0 0.0 0.00 0.00 0.00 82 1012.5
20260506101138 16 124 0.0 0.0 0.00 0.00 0.00 82 1012.2
20260506100636 16 126 0.0 1.6 0.00 0.00 0.00 82 1012.3
20260506100134 16 128 0.0 1.6 0.00 0.00 0.00 81 1012.6
20260506095632 16 126 0.0 1.6 0.00 0.00 0.00 81 1012.6
20260506095129 16 124 1.6 1.6 0.00 0.00 0.00 81 1012.6
20260506094626 16 122 0.0 0.0 0.00 0.00 0.00 81 1012.8
20260506094124 16 121 0.0 0.0 0.00 0.00 0.00 81 1012.9
20260506093622 16 123 0.0 1.6 0.00 0.00 0.00 81 1012.8
20260506093119 16 124 0.0 0.0 0.00 0.00 0.00 80 1012.8
20260506092617 16 123 0.0 1.6 0.00 0.00 0.00 80 1012.6
20260506092113 16 125 0.0 0.0 0.00 0.00 0.00 80 1012.8
20260506091612 16 126 0.0 1.6 0.00 0.00 0.00 81 1012.7
20260506091109 16 124 0.0 1.6 0.00 0.00 0.00 81 1012.8
20260506090607 16 121 0.0 1.6 0.00 0.00 0.00 81 1013.0
20260506085600 16 120 0.0 1.6 0.00 0.00 0.00 82 1012.9
20260506085056 16 124 1.6 1.6 0.00 0.00 0.00 82 1013.0
20260506084553 16 93 0.0 1.6 0.00 0.00 0.00 82 1013.4
20260506084049 16 122 0.0 1.6 0.00 0.00 0.00 81 1013.2
20260506083547 16 121 0.0 1.6 0.00 0.00 0.00 81 1013.2
20260506083044 16 118 0.0 1.6 0.00 0.00 0.00 81 1013.0
20260506082540 16 127 0.0 0.0 0.00 0.00 0.00 80 1013.5
20260506082036 16 129 0.0 0.0 0.00 0.00 0.00 80 1013.2
20260506081535 16 129 0.0 1.6 0.00 0.00 0.00 80 1013.5
20260506081032 16 130 0.0 0.0 0.00 0.00 0.00 80 1013.4
20260506080529 16 126 0.0 0.0 0.00 0.00 0.00 80 1013.6
20260506073513 16 129 1.6 1.6 0.00 0.00 0.00 80 1013.6
20260506073010 16 117 0.0 1.6 0.00 0.00 0.00 80 1013.3
20260506072507 16 117 0.0 1.6 0.00 0.00 0.00 80 1013.7
20260506072004 16 121 0.0 1.6 0.00 0.00 0.00 80 1013.7
20260506071502 16 113 0.0 0.0 0.00 0.00 0.00 81 1013.8
20260506070959 16 113 0.0 0.0 0.00 0.00 0.00 82 1013.6
20260506070456 16 112 0.0 1.6 0.00 0.00 0.00 81 1013.4
20260506062434 16 117 0.0 0.0 0.00 0.00 0.00 79 1013.7
20260506061929 16 114 0.0 0.0 0.00 0.00 0.00 79 1013.7
20260506061426 16 120 0.0 0.0 0.00 0.00 0.00 78 1013.8
20260506060924 16 120 0.0 1.6 0.00 0.00 0.00 78 1014.0
20260506060422 16 120 0.0 0.0 0.00 0.00 0.00 77 1013.6
20260506051354 17 128 0.0 1.6 0.00 0.00 0.00 73 1014.0
20260506050851 17 128 0.0 0.0 0.00 0.00 0.00 73 1013.7
20260506050349 17 135 0.0 1.6 0.00 0.00 0.00 73 1013.6
20260506044839 18 126 1.6 1.6 0.00 0.00 0.00 72 1014.0
20260506044337 18 151 3.2 3.2 0.00 0.00 0.00 72 1013.8
20260506043834 18 133 1.6 3.2 0.00 0.00 0.00 71 1013.8
20260506043331 18 135 0.0 1.6 0.00 0.00 0.00 71 1013.8
20260506042829 18 132 0.0 0.0 0.00 0.00 0.00 71 1013.8
20260506042328 18 133 0.0 1.6 0.00 0.00 0.00 70 1013.8
20260506041827 18 133 0.0 1.6 0.00 0.00 0.00 70 1013.6
20260506041323 18 133 1.6 1.6 0.00 0.00 0.00 69 1013.7
20260506040820 18 133 1.6 1.6 0.00 0.00 0.00 69 1013.8
20260506040318 18 133 1.6 1.6 0.00 0.00 0.00 69 1013.6
20260506035814 18 130 0.0 1.6 0.00 0.00 0.00 68 1013.4
20260506035311 18 129 0.0 1.6 0.00 0.00 0.00 68 1013.5
20260506034808 18 129 0.0 0.0 0.00 0.00 0.00 67 1013.9
20260506034305 18 129 0.0 1.6 0.00 0.00 0.00 67 1013.7
20260506033802 18 131 0.0 1.6 0.00 0.00 0.00 65 1013.7
20260506033259 18 129 1.6 3.2 0.00 0.00 0.00 64 1013.6
20260506032756 18 128 0.0 1.6 0.00 0.00 0.00 64 1013.6
20260506032253 18 128 1.6 1.6 0.00 0.00 0.00 63 1013.7
20260506031749 18 127 1.6 3.2 0.00 0.00 0.00 64 1013.2
20260506031247 16 122 0.0 0.0 0.00 0.00 0.00 68 1013.5
20260506030745 16 121 0.0 0.0 0.00 0.00 0.00 72 1013.3
20260506030243 16 121 0.0 0.0 0.00 0.00 0.00 71 1013.5
20260506025739 16 121 0.0 0.0 0.00 0.00 0.00 71 1013.3
20260506025235 16 121 0.0 0.0 0.00 0.00 0.00 71 1013.3
20260506024733 17 121 0.0 0.0 0.00 0.00 0.00 72 1013.2
20260506024229 17 121 0.0 0.0 0.00 0.00 0.00 72 1013.3
20260506023725 17 121 0.0 0.0 0.00 0.00 0.00 73 1013.4
20260506023223 17 121 0.0 0.0 0.00 0.00 0.00 70 1013.3
20260506022719 17 121 0.0 0.0 0.00 0.00 0.00 73 1013.3
20260506022217 17 121 0.0 0.0 0.00 0.00 0.00 71 1013.5
20260506021715 17 121 0.0 0.0 0.00 0.00 0.00 71 1013.4
20260506021212 17 121 0.0 0.0 0.00 0.00 0.00 71 1013.4
20260506020708 17 121 0.0 0.0 0.00 0.00 0.00 71 1013.2
20260506020206 17 121 0.0 0.0 0.00 0.00 0.00 72 1013.5
20260506015704 17 121 0.0 0.0 0.00 0.00 0.00 71 1013.5
20260506015201 17 121 0.0 0.0 0.00 0.00 0.00 71 1013.5
20260506014658 17 121 0.0 0.0 0.00 0.00 0.00 69 1013.3
20260506014154 17 121 0.0 0.0 0.00 0.00 0.00 71 1013.5
20260506013652 17 121 0.0 0.0 0.00 0.00 0.00 70 1013.5
20260506013149 17 121 0.0 0.0 0.00 0.00 0.00 68 1013.6
20260506012645 17 121 0.0 0.0 0.00 0.00 0.00 67 1013.4
20260506012142 18 121 0.0 0.0 0.00 0.00 0.00 68 1013.3
20260506011639 18 121 0.0 0.0 0.00 0.00 0.00 66 1013.2
20260506011135 18 121 0.0 0.0 0.00 0.00 0.00 63 1013.2
20260506010634 18 121 0.0 0.0 0.00 0.00 0.00 61 1013.3
20260506010131 19 121 0.0 0.0 0.00 0.00 0.00 61 1012.9
20260506005628 19 121 0.0 0.0 0.00 0.00 0.00 60 1013.0
20260506005124 20 121 0.0 0.0 0.00 0.00 0.00 59 1013.0
20260506004621 20 121 0.0 0.0 0.00 0.00 0.00 58 1013.2
20260506004118 20 121 0.0 0.0 0.00 0.00 0.00 58 1012.8
20260506003614 20 121 0.0 0.0 0.00 0.00 0.00 57 1013.0
20260506003110 20 121 0.0 0.0 0.00 0.00 0.00 56 1012.9
20260506002606 21 121 0.0 0.0 0.00 0.00 0.00 55 1012.7
20260506002102 21 121 0.0 0.0 0.00 0.00 0.00 54 1012.7
20260506001559 21 121 0.0 0.0 0.00 0.00 0.00 53 1012.7
20260506001056 21 121 0.0 0.0 0.00 0.00 0.00 52 1012.7
20260506000554 22 121 0.0 0.0 0.00 0.00 0.00 51 1012.6
20260506000051 22 121 0.0 0.0 0.00 0.00 0.00 50 1012.8
20260505235549 22 121 0.0 0.0 0.00 0.00 0.00 50 1012.6
20260505235046 23 121 0.0 0.0 0.00 0.00 0.00 48 1012.7
20260505234543 23 122 0.0 0.0 0.00 0.00 0.00 47 1012.6
20260505234039 23 121 0.0 0.0 0.00 0.00 0.00 46 1012.6
20260505233537 23 122 0.0 0.0 0.00 0.00 0.00 45 1012.5
20260505233034 23 119 1.6 1.6 0.00 0.00 0.00 46 1012.7
20260505232532 24 126 0.0 1.6 0.00 0.00 0.00 44 1012.6
20260505232029 24 124 1.6 1.6 0.00 0.00 0.00 44 1012.4
20260505231526 24 134 0.0 3.2 0.00 0.00 0.00 44 1012.5
20260505231025 24 127 0.0 3.2 0.00 0.00 0.00 43 1012.3
20260505230521 25 128 0.0 1.6 0.00 0.00 0.00 43 1012.5
20260505230018 25 118 3.2 4.8 0.00 0.00 0.00 42 1012.5
20260505225515 25 119 0.0 1.6 0.00 0.00 0.00 43 1012.7
20260505225011 25 116 0.0 1.6 0.00 0.00 0.00 42 1012.8
20260505224508 25 162 3.2 3.2 0.00 0.00 0.00 42 1012.8
20260505224005 25 128 0.0 1.6 0.00 0.00 0.00 43 1012.8
20260505223502 25 100 1.6 3.2 0.00 0.00 0.00 42 1012.9
20260505222958 25 119 0.0 1.6 0.00 0.00 0.00 41 1012.7
20260505222455 25 115 1.6 8.0 0.00 0.00 0.00 42 1012.8
20260505221950 25 142 1.6 4.8 0.00 0.00 0.00 43 1012.6
20260505221448 25 130 0.0 3.2 0.00 0.00 0.00 42 1012.4
20260505220945 25 130 1.6 3.2 0.00 0.00 0.00 42 1012.8
20260505220442 25 138 1.6 3.2 0.00 0.00 0.00 42 1012.7
20260505215940 25 124 1.6 3.2 0.00 0.00 0.00 40 1012.8
20260505215438 25 73 1.6 3.2 0.00 0.00 0.00 41 1012.7
20260505214935 25 120 0.0 1.6 0.00 0.00 0.00 43 1012.8
20260505214433 25 131 0.0 3.2 0.00 0.00 0.00 42 1012.9
20260505213930 25 148 1.6 3.2 0.00 0.00 0.00 41 1012.9
20260505213427 25 128 3.2 9.7 0.00 0.00 0.00 44 1012.8
20260505212923 25 134 0.0 1.6 0.00 0.00 0.00 43 1012.9
20260505212421 25 122 0.0 4.8 0.00 0.00 0.00 43 1013.0
20260505211917 25 119 0.0 3.2 0.00 0.00 0.00 42 1012.9
20260505211415 25 160 1.6 3.2 0.00 0.00 0.00 43 1013.0
20260505210910 25 122 0.0 1.6 0.00 0.00 0.00 43 1013.3
20260505210408 25 126 1.6 8.0 0.00 0.00 0.00 42 1013.0
20260505205905 25 135 1.6 1.6 0.00 0.00 0.00 42 1013.0
20260505205403 26 139 1.6 8.0 0.00 0.00 0.00 42 1013.3
20260505204900 26 167 3.2 8.0 0.00 0.00 0.00 42 1013.4
20260505204357 26 133 1.6 3.2 0.00 0.00 0.00 41 1013.3
20260505203855 26 156 1.6 4.8 0.00 0.00 0.00 43 1013.3
20260505203351 26 151 1.6 8.0 0.00 0.00 0.00 42 1013.4
20260505202847 26 133 1.6 4.8 0.00 0.00 0.00 41 1013.5
20260505202343 26 116 0.0 4.8 0.00 0.00 0.00 41 1013.5
20260505201840 26 67 3.2 4.8 0.00 0.00 0.00 44 1013.6
20260505201337 26 125 0.0 1.6 0.00 0.00 0.00 42 1013.5
20260505200836 26 119 1.6 3.2 0.00 0.00 0.00 43 1013.9
20260505200332 26 154 1.6 3.2 0.00 0.00 0.00 41 1013.8
20260505195828 26 166 1.6 3.2 0.00 0.00 0.00 41 1014.0
20260505195325 26 144 3.2 8.0 0.00 0.00 0.00 41 1013.8
20260505194822 26 139 1.6 3.2 0.00 0.00 0.00 41 1013.7
20260505194320 26 154 3.2 8.0 0.00 0.00 0.00 41 1013.9
20260505193814 26 131 1.6 1.6 0.00 0.00 0.00 41 1013.8
20260505193313 25 136 1.6 9.7 0.00 0.00 0.00 41 1014.1
20260505192810 26 142 1.6 3.2 0.00 0.00 0.00 38 1014.2
20260505192310 26 117 0.0 9.7 0.00 0.00 0.00 42 1014.2
20260505191806 26 137 1.6 9.7 0.00 0.00 0.00 39 1014.5
20260505191304 26 114 4.8 4.8 0.00 0.00 0.00 41 1014.4
20260505190800 26 129 0.0 4.8 0.00 0.00 0.00 43 1014.3
20260505190255 26 129 1.6 8.0 0.00 0.00 0.00 42 1014.4
20260505185752 26 84 4.8 8.0 0.00 0.00 0.00 39 1014.7
20260505185248 26 88 3.2 4.8 0.00 0.00 0.00 38 1014.6
20260505184744 27 102 1.6 4.8 0.00 0.00 0.00 38 1014.7
20260505184242 27 120 3.2 17.7 0.00 0.00 0.00 40 1014.7
20260505183738 26 141 1.6 3.2 0.00 0.00 0.00 41 1014.8
20260505183236 26 342 4.8 16.1 0.00 0.00 0.00 41 1014.9
20260505182732 27 107 4.8 8.0 0.00 0.00 0.00 41 1015.0
20260505182229 26 38 4.8 4.8 0.00 0.00 0.00 41 1015.1
20260505181725 26 116 0.0 11.3 0.00 0.00 0.00 45 1015.3
20260505181224 26 126 1.6 12.9 0.00 0.00 0.00 42 1015.1
20260505180720 26 132 3.2 9.7 0.00 0.00 0.00 42 1015.3
20260505180217 26 115 4.8 8.0 0.00 0.00 0.00 42 1015.3
20260505175713 26 145 1.6 12.9 0.00 0.00 0.00 46 1015.3
20260505175209 25 286 4.8 9.7 0.00 0.00 0.00 44 1015.4
20260505174706 25 124 0.0 3.2 0.00 0.00 0.00 44 1015.6
20260505174203 25 128 1.6 9.7 0.00 0.00 0.00 45 1015.4
20260505173659 26 139 1.6 3.2 0.00 0.00 0.00 43 1015.6
20260505173156 26 107 1.6 8.0 0.00 0.00 0.00 45 1015.4
20260505172653 26 214 4.8 8.0 0.00 0.00 0.00 43 1015.4
20260505172150 25 140 1.6 3.2 0.00 0.00 0.00 42 1015.4
20260505171649 25 143 3.2 4.8 0.00 0.00 0.00 44 1015.4
20260505171147 25 176 4.8 9.7 0.00 0.00 0.00 44 1015.6
20260505170644 25 130 0.0 3.2 0.00 0.00 0.00 45 1015.3
20260505170140 25 351 8.0 11.3 0.00 0.00 0.00 45 1015.5
20260505165635 25 116 3.2 16.1 0.00 0.00 0.00 46 1015.6
20260505165131 25 120 1.6 4.8 0.00 0.00 0.00 42 1015.6
20260505164626 25 156 3.2 3.2 0.00 0.00 0.00 44 1015.6
20260505164125 25 149 3.2 4.8 0.00 0.00 0.00 45 1015.8
20260505163623 25 131 3.2 4.8 0.00 0.00 0.00 45 1015.6
20260505163120 25 192 1.6 3.2 0.00 0.00 0.00 50 1015.9
20260505162617 24 116 1.6 8.0 0.00 0.00 0.00 49 1015.8
20260505162115 25 359 4.8 8.0 0.00 0.00 0.00 52 1015.7
20260505161612 25 110 1.6 3.2 0.00 0.00 0.00 51 1016.0
20260505161109 24 119 0.0 4.8 0.00 0.00 0.00 56 1016.1
20260505160607 23 339 4.8 9.7 0.00 0.00 0.00 53 1016.2
20260505160104 23 130 1.6 1.6 0.00 0.00 0.00 54 1016.4
20260505153043 22 136 1.6 3.2 0.00 0.00 0.00 59 1016.8
20260505152540 22 131 0.0 1.6 0.00 0.00 0.00 60 1016.5
20260505152036 22 132 1.6 3.2 0.00 0.00 0.00 60 1016.6
20260505151531 22 110 3.2 3.2 0.00 0.00 0.00 62 1016.6